Wind_Speed
8 9 9 11 10 11 13 16 16 17 19 20 19 19 18 19 19 18 14 13 11 13 14 15 16 15 13 13 14 14 15 12 6 1 17 28 20 11 27 29 29 3 27 36 36
8 9 10 10 10 12 11 12 14 16 17 17 18 18 16 18 19 18 17 15 14 13 12 13 14 14 13 13 13 14 14 12 9 9 17 16 6 21 34 31 34 38 49 24 29
7 8 9 10 10 11 11 11 11 13 15 15 17 19 18 17 17 15 19 17 15 14 14 14 14 15 15 16 16 17 16 14 11 15 28 29 27 13 28 25 33 35 34 31 30
8 7 8 9 10 12 11 11 12 11 11 12 14 18 21 22 19 19 19 20 19 18 16 15 16 16 16 16 16 17 16 17 18 13 31 27 42 28 14 24 29 26 38 44 30
8 8 8 8 9 10 12 12 12 12 11 11 12 13 16 19 19 19 17 17 19 19 18 17 15 14 13 14 15 17 17 19 19 25 19 29 24 18 19 13 19 31 28 34 36
9 8 7 8 9 9 10 12 12 12 12 13 13 13 13 12 12 15 16 15 14 15 14 14 14 14 14 14 15 15 18 17 16 24 24 24 23 21 16 17 27 35 45 44 39
10 9 9 8 8 9 9 10 12 12 12 13 13 14 15 13 12 13 14 14 14 14 14 14 13 13 13 13 14 15 18 19 18 22 17 19 21 20 9 25 38 49 48 46 50
12 11 11 10 9 8 8 8 9 10 12 13 13 13 13 14 14 15 15 14 15 15 14 13 12 12 12 13 13 14 14 15 15 17 15 19 9 21 25 24 38 46 38 41 50
13 13 13 12 11 10 9 8 8 8 9 10 12 14 12 13 14 14 15 15 15 14 13 12 12 11 12 11 10 10 12 5 8 20 23 13 8 25 14 19 37 44 36 28 26
15 14 15 14 13 12 11 10 9 8 9 10 10 11 10 11 12 13 13 13 13 13 12 12 11 11 10 9 6 7 12 5 11 17 21 9 22 29 15 25 35 34 35 30 28
13 15 15 15 14 12 13 12 11 10 10 10 11 11 10 9 10 11 12 12 12 13 13 12 11 10 2 12 20 24 20 13 12 19 23 17 29 22 22 25 30 34 32 30 28
12 12 13 16 15 13 13 13 13 12 12 12 12 11 11 11 11 11 11 12 12 13 12 9 6 10 19 16 11 13 26 19 15 16 27 25 29 13 22 25 26 30 32 28 28
17 14 13 13 15 14 13 13 13 13 13 12 12 11 10 11 11 10 11 12 13 12 11 12 9 20 10 14 13 14 16 14 13 15 23 27 33 26 21 24 29 32 31 32 33
23 19 16 15 14 14 14 14 14 14 13 12 11 11 12 12 11 10 11 11 11 11 13 9 21 13 14 13 13 6 13 19 22 23 19 19 26 36 37 34 34 34 33 30 32
20 21 20 18 17 14 13 14 14 14 7 16 10 10 11 11 10 10 11 11 12 9 10 6 18 15 10 12 19 17 22 25 24 17 17 18 21 33 42 20 32 36 41 32 42
17 17 21 21 20 17 16 15 14 11 9 15 10 10 10 10 10 11 11 12 12 12 11 18 21 17 18 22 17 20 22 21 22 15 18 12 18 38 37 41 37 34 45 48 48
13 12 17 21 20 20 19 17 15 12 13 15 15 12 12 11 13 13 13 11 12 11 9 13 17 21 18 19 19 18 16 13 12 18 23 14 20 32 38 35 36 41 46 46 43
13 10 10 17 19 21 21 19 18 11 9 16 12 12 11 12 12 14 11 8 10 10 11 4 12 12 19 12 15 18 16 15 16 15 16 22 14 26 33 39 42 44 42 39 39
15 10 6 9 15 18 21 21 17 19 17 13 15 12 12 13 13 15 14 6 15 11 13 12 13 27 28 22 17 17 17 16 22 18 18 13 28 38 37 39 41 35 39 37 41
19 15 11 8 10 15 18 19 23 22 28 27 16 14 14 14 19 17 12 11 22 17 17 20 22 12 24 19 16 18 19 21 18 14 14 11 27 29 32 36 40 41 44 45 44
22 19 17 14 12 11 13 17 20 27 25 24 21 15 14 16 18 17 12 21 26 29 21 20 23 21 21 19 13 16 12 14 18 18 20 20 19 37 42 43 40 43 37 35 34
22 23 20 19 17 15 15 19 27 24 21 23 25 27 22 28 15 14 20 25 27 27 23 26 22 22 20 23 24 24 24 24 25 24 26 28 28 35 39 41 44 41 36 34 34
21 22 22 20 20 20 19 23 19 21 25 25 26 26 28 27 31 30 26 35 37 32 29 28 24 24 21 12 22 19 23 23 23 23 21 22 22 32 35 38 39 40 40 39 39
22 22 22 21 22 20 21 24 22 23 24 27 26 26 31 29 26 30 26 36 34 33 28 28 26 24 23 18 22 20 23 23 23 22 22 21 21 34 38 39 33 35 39 39 41
26 25 22 22 24 23 25 23 23 25 22 25 25 28 26 26 25 22 24 35 30 24 27 26 25 25 24 24 25 24 23 22 24 25 26 25 24 32 43 39 37 40 40 39 40
32 26 25 26 23 21 22 23 25 26 27 27 27 27 27 28 25 25 27 29 29 16 23 25 23 25 23 23 21 22 22 23 25 25 28 28 30 35 34 35 38 39 40 41 40
29 31 29 28 27 27 24 24 25 28 30 31 29 28 26 22 30 35 30 28 30 29 26 24 23 26 22 23 24 23 23 23 26 29 27 26 32 34 33 34 37 34 36 38 39
Wind_Direction
282 268 265 260 257 253 248 243 241 241 243 244 246 246 247 243 242 238 243 238 242 247 246 245 243 242 239 236 237 234 237 233 186 303 273 255 269 286 278 272 289 220 236 282 275
284 274 264 260 260 258 258 253 248 245 247 246 245 241 245 243 240 238 242 244 249 244 244 240 236 237 242 244 243 243 244 238 164 254 254 328 280 266 268 276 269 277 284 277 292
297 283 275 267 260 260 259 261 258 252 248 247 243 239 240 242 241 239 243 248 247 251 248 242 238 238 242 248 250 251 248 241 198 264 243 229 241 286 292 291 282 284 293 288 280
315 299 285 275 269 258 257 256 255 257 255 248 244 241 241 243 246 243 245 248 252 256 255 250 248 246 246 247 248 252 251 245 220 244 259 251 247 253 288 283 287 306 288 279 260
319 308 297 286 272 268 256 254 253 252 250 248 246 244 245 246 243 246 248 248 249 251 254 252 249 247 246 247 252 254 253 251 248 234 266 278 271 255 223 277 280 275 279 275 283
311 309 302 294 283 271 265 255 252 250 250 248 249 250 251 251 243 241 244 245 244 244 244 246 248 252 254 251 253 253 262 262 251 259 258 269 282 268 266 228 279 257 260 268 274
295 296 297 291 292 286 275 264 255 254 254 254 255 255 252 250 248 243 242 240 244 246 248 249 252 251 257 256 257 258 268 271 267 266 273 241 262 294 240 237 245 244 253 269 275
284 286 286 291 291 290 284 274 265 253 250 250 252 252 253 252 250 251 249 248 247 249 251 251 252 253 255 258 259 267 278 282 292 282 268 263 271 247 250 234 257 258 257 254 280
285 277 276 278 281 285 283 276 265 258 256 255 255 255 255 251 248 249 250 249 249 249 245 243 245 248 252 255 262 325 340 299 245 258 297 266 248 253 289 276 261 273 288 303 294
282 279 275 272 272 273 274 271 266 257 253 251 254 257 260 258 255 253 251 251 250 245 240 237 240 248 249 243 121 233 276 244 235 271 281 210 259 273 295 269 269 285 291 298 292
286 276 271 271 268 265 265 267 268 263 256 256 258 259 257 253 247 247 246 243 242 240 238 236 240 235 45 256 212 212 188 198 251 246 257 226 262 295 284 281 283 294 295 293 288
293 287 277 268 265 264 262 264 264 265 262 257 256 258 259 258 254 250 250 249 247 245 243 239 254 237 239 252 257 232 230 231 211 250 272 274 283 275 287 290 290 291 295 294 290
280 274 275 268 262 261 259 261 262 261 260 259 258 256 258 258 258 255 253 252 246 243 241 222 234 252 248 250 252 248 245 241 250 251 260 262 289 302 305 289 291 291 294 298 298
270 262 257 258 258 258 256 258 259 263 266 261 260 256 251 253 253 251 248 244 234 217 242 206 234 261 259 262 260 233 245 256 243 238 254 273 284 285 292 282 284 293 286 289 293
272 256 250 249 248 248 245 249 251 257 278 255 254 256 252 251 253 239 240 238 235 237 229 220 255 254 258 247 253 216 254 259 265 264 267 265 272 265 276 258 288 293 296 297 300
271 263 248 243 237 235 235 237 241 239 254 268 251 253 248 247 246 240 245 250 254 250 233 232 257 271 244 264 279 264 278 273 269 290 287 310 256 274 279 289 301 303 298 305 301
274 280 248 240 239 233 232 231 228 215 243 272 263 250 247 248 251 250 251 248 247 245 267 275 291 280 261 266 273 274 279 284 288 280 286 282 282 265 280 291 296 298 302 299 300
264 286 256 236 236 234 233 230 225 198 225 261 245 247 241 230 232 257 259 270 259 247 203 253 261 256 275 267 271 251 231 243 251 251 268 301 284 279 291 294 292 293 303 302 298
248 254 261 232 231 232 232 229 220 210 202 235 234 220 230 208 233 248 264 208 232 230 237 194 247 269 272 277 270 249 239 250 256 269 275 272 276 276 276 280 280 288 298 298 302
240 241 242 237 233 233 233 227 217 223 220 222 219 222 215 221 239 237 244 267 252 263 253 238 227 235 271 284 276 261 254 254 265 275 278 260 296 289 283 282 293 296 293 294 295
238 237 236 235 234 234 231 225 233 241 238 233 227 190 231 214 238 250 253 256 265 276 267 256 261 251 262 290 268 274 259 251 259 259 272 280 274 274 280 284 285 285 294 288 293
237 237 237 235 232 229 227 226 239 243 244 234 234 222 216 213 237 218 232 239 254 266 269 264 273 275 273 264 275 268 266 261 269 271 264 263 263 271 273 282 286 297 299 300 298
238 238 234 234 230 227 227 238 244 233 238 237 236 233 237 237 222 221 235 241 250 261 265 271 275 277 277 282 289 291 268 268 273 281 286 278 274 276 280 282 289 300 299 303 301
238 239 231 234 235 239 243 243 238 237 239 237 236 236 240 243 243 242 241 255 257 258 265 267 272 275 274 259 256 250 275 280 279 287 290 283 263 284 272 277 291 294 297 299 300
237 240 237 231 232 234 237 243 239 243 237 242 235 238 246 249 240 258 269 259 264 253 262 266 274 274 275 272 263 268 265 274 284 292 294 295 278 267 284 298 301 301 302 302 300
238 241 242 243 242 241 242 240 241 240 245 237 241 238 241 247 247 237 236 250 270 263 267 271 275 277 278 276 271 265 267 275 282 284 290 292 281 279 293 294 297 300 305 302 302
242 243 241 244 244 242 245 243 242 240 239 247 245 241 236 244 236 245 248 259 267 277 280 274 276 279 282 272 264 272 273 282 287 290 293 289 289 295 295 299 298 306 298 300 306
Height
5863 5862 5862 5863 5863 5863 5864 5865 5866 5867 5868 5869 5870 5872 5873 5874 5875 5877 5880 5882 5883 5885 5886 5888 5890 5892 5894 5896 5897 5899 5900 5903 5907 5914 5916 5906 5908 5910 5905 5895 5895 5844 5878 5879 5873
5861 5861 5861 5861 5861 5861 5862 5862 5863 5864 5865 5866 5867 5868 5870 5871 5872 5875 5878 5879 5881 5883 5885 5886 5887 5889 5891 5893 5894 5896 5897 5900 5905 5911 5911 5901 5903 5906 5900 5897 5890 5883 5877 5876 5871
5859 5859 5859 5859 5859 5859 5859 5860 5860 5861 5862 5863 5864 5865 5867 5868 5870 5875 5875 5877 5879 5880 5882 5884 5885 5887 5889 5890 5891 5892 5895 5897 5901 5906 5904 5901 5900 5902 5895 5895 5889 5881 5874 5881 5877
5858 5857 5857 5856 5856 5857 5857 5858 5858 5859 5860 5860 5861 5862 5864 5865 5869 5869 5872 5874 5875 5877 5879 5880 5882 5884 5885 5887 5887 5889 5890 5892 5895 5898 5894 5897 5898 5900 5899 5894 5888 5881 5875 5871 5878
5858 5857 5856 5855 5854 5855 5855 5856 5857 5857 5858 5858 5859 5860 5861 5863 5866 5866 5868 5870 5872 5874 5875 5877 5878 5880 5882 5883 5884 5885 5887 5888 5890 5891 5890 5888 5891 5892 5895 5896 5891 5886 5872 5861 5864
5857 5856 5855 5854 5853 5853 5853 5854 5855 5856 5856 5857 5857 5858 5860 5861 5862 5864 5865 5867 5869 5871 5872 5874 5875 5877 5878 5879 5881 5882 5882 5883 5884 5884 5885 5885 5884 5885 5888 5893 5884 5871 5865 5866 5861
5856 5855 5854 5853 5852 5851 5851 5852 5853 5853 5854 5855 5856 5856 5858 5860 5861 5862 5864 5865 5867 5868 5870 5871 5872 5873 5875 5876 5877 5878 5878 5879 5880 5879 5880 5881 5880 5881 5883 5881 5869 5865 5864 5867 5860
5854 5853 5852 5852 5851 5850 5850 5850 5851 5851 5852 5852 5854 5854 5856 5857 5858 5859 5861 5863 5864 5865 5867 5868 5869 5870 5872 5873 5874 5875 5876 5876 5875 5875 5876 5875 5878 5875 5874 5878 5863 5858 5864 5867 5861
5850 5850 5850 5849 5849 5849 5848 5849 5849 5849 5850 5850 5851 5852 5854 5854 5855 5856 5858 5859 5861 5862 5864 5865 5866 5867 5869 5871 5873 5874 5875 5877 5878 5873 5875 5874 5875 5869 5873 5876 5859 5850 5854 5861 5862
5847 5846 5846 5846 5846 5847 5846 5847 5847 5848 5848 5848 5849 5851 5852 5853 5853 5854 5855 5857 5858 5859 5861 5862 5864 5865 5867 5869 5874 5877 5879 5879 5879 5872 5871 5875 5870 5865 5869 5865 5857 5853 5852 5853 5853
5843 5842 5842 5842 5843 5844 5844 5845 5846 5847 5846 5847 5847 5847 5849 5850 5851 5852 5853 5854 5856 5857 5859 5860 5862 5863 5868 5869 5867 5867 5870 5874 5874 5870 5869 5868 5862 5864 5864 5861 5855 5849 5848 5848 5847
5840 5839 5839 5839 5839 5841 5841 5841 5842 5843 5844 5844 5844 5845 5846 5847 5848 5850 5851 5853 5853 5855 5857 5859 5860 5860 5859 5861 5863 5865 5866 5868 5870 5868 5864 5862 5857 5861 5859 5856 5853 5848 5845 5845 5843
5836 5836 5835 5835 5836 5837 5838 5839 5839 5839 5840 5842 5842 5843 5844 5845 5846 5847 5849 5849 5851 5852 5854 5856 5860 5855 5858 5858 5860 5861 5862 5864 5866 5866 5863 5858 5852 5851 5853 5850 5846 5843 5840 5838 5838
5830 5831 5831 5832 5834 5834 5834 5835 5836 5837 5838 5840 5841 5841 5842 5842 5844 5845 5845 5848 5849 5850 5852 5854 5852 5854 5855 5856 5856 5858 5858 5857 5857 5857 5858 5858 5853 5844 5842 5840 5839 5840 5838 5835 5832
5823 5825 5826 5827 5828 5830 5831 5832 5833 5835 5836 5836 5838 5839 5839 5840 5842 5842 5843 5844 5845 5849 5851 5853 5849 5850 5852 5852 5851 5853 5850 5851 5851 5852 5851 5852 5851 5840 5833 5821 5832 5833 5832 5830 5828
5818 5818 5820 5822 5823 5826 5826 5828 5830 5833 5834 5833 5835 5836 5837 5837 5838 5840 5841 5842 5843 5844 5846 5845 5844 5847 5847 5846 5848 5847 5847 5847 5846 5847 5845 5845 5845 5833 5832 5829 5828 5824 5824 5820 5819
5814 5813 5814 5815 5819 5820 5822 5824 5828 5830 5831 5832 5832 5833 5834 5835 5836 5837 5838 5839 5840 5842 5842 5843 5842 5841 5843 5843 5842 5842 5842 5842 5845 5845 5841 5843 5834 5828 5826 5826 5823 5820 5816 5814 5810
5810 5810 5808 5810 5813 5815 5817 5821 5823 5828 5830 5831 5830 5830 5832 5834 5834 5834 5835 5836 5837 5838 5838 5843 5844 5837 5835 5838 5838 5837 5839 5839 5838 5839 5838 5835 5830 5826 5823 5821 5817 5814 5810 5806 5803
5805 5806 5806 5806 5808 5810 5813 5816 5821 5823 5826 5826 5827 5830 5830 5833 5834 5832 5832 5835 5834 5834 5836 5837 5839 5833 5832 5833 5834 5833 5834 5834 5831 5832 5832 5835 5827 5819 5818 5814 5811 5808 5806 5802 5799
5800 5802 5803 5803 5803 5805 5808 5812 5814 5815 5817 5819 5823 5826 5830 5831 5831 5830 5831 5831 5829 5830 5831 5830 5832 5831 5826 5829 5829 5828 5829 5829 5829 5828 5827 5830 5816 5811 5810 5809 5805 5803 5800 5797 5792
5794 5796 5797 5799 5800 5801 5804 5807 5810 5809 5812 5816 5819 5822 5825 5829 5828 5828 5829 5826 5824 5822 5825 5825 5825 5828 5826 5824 5824 5822 5824 5823 5822 5822 5820 5820 5821 5807 5802 5798 5800 5796 5795 5790 5786
5787 5789 5792 5793 5796 5796 5799 5802 5802 5804 5807 5809 5812 5815 5817 5820 5822 5824 5824 5815 5816 5818 5819 5817 5819 5819 5821 5818 5819 5818 5817 5817 5815 5816 5815 5813 5811 5804 5801 5795 5793 5788 5786 5783 5779
5781 5783 5786 5788 5789 5790 5793 5794 5797 5798 5800 5804 5806 5808 5810 5813 5815 5816 5815 5813 5813 5814 5813 5813 5813 5812 5813 5816 5811 5811 5810 5811 5810 5809 5809 5806 5806 5797 5795 5791 5787 5783 5777 5774 5770
5776 5778 5780 5781 5783 5785 5786 5789 5791 5792 5795 5796 5800 5802 5803 5805 5808 5809 5810 5806 5808 5806 5809 5807 5808 5808 5808 5809 5806 5806 5805 5805 5804 5804 5802 5801 5799 5787 5785 5783 5783 5779 5773 5767 5761
5768 5770 5773 5775 5775 5778 5780 5783 5785 5786 5789 5790 5793 5795 5797 5799 5801 5803 5803 5800 5800 5802 5801 5802 5802 5802 5801 5801 5800 5800 5800 5800 5798 5797 5795 5794 5791 5781 5774 5774 5773 5768 5763 5759 5752
5760 5763 5766 5768 5770 5772 5773 5776 5778 5780 5782 5784 5786 5789 5791 5792 5794 5797 5796 5793 5792 5796 5796 5796 5796 5795 5796 5795 5793 5794 5795 5794 5793 5791 5789 5786 5782 5776 5775 5770 5766 5761 5755 5749 5743
5753 5754 5758 5761 5763 5765 5767 5769 5771 5772 5775 5776 5778 5781 5784 5786 5785 5783 5786 5788 5788 5788 5788 5790 5790 5788 5790 5789 5787 5789 5789 5788 5786 5783 5782 5779 5774 5770 5768 5764 5759 5756 5748 5742 5737